This is the latest recevied weather packets stored in our database for station/object W4DHW-4. If no packets are shown the sender has not sent any weather packets the latest 10 day(s).
| Time | Temp. | Humidity | Pressure | Rain* | Wind** | Luminosity | Snow |
|---|---|---|---|---|---|---|---|
| 1777981495 | 10.56° C | 89% | 1015.3 hPa | 0 mm | - | 113 W/m² | - |
| 1777981192 | 10° C | 89% | 1015.4 hPa | 0 mm | - | 87 W/m² | - |
| 1777980888 | 10° C | 91% | 1015.4 hPa | 0 mm | - | 89 W/m² | - |
| 1777980583 | 9.44° C | 92% | 1015.2 hPa | 0 mm | - | 76 W/m² | - |
| 1777980281 | 9.44° C | 93% | 1015.3 hPa | 0 mm | - | 67 W/m² | - |
| 1777979978 | 8.89° C | 94% | 1015.1 hPa | 0 mm | - | 62 W/m² | - |
| 1777979672 | 8.89° C | 94% | 1015.3 hPa | 0 mm | - | 55 W/m² | - |
| 1777979369 | 8.33° C | 95% | 1015.1 hPa | 0 mm | - | 50 W/m² | - |
| 1777979066 | 8.33° C | 95% | 1014.7 hPa | 0 mm | - | 43 W/m² | - |
| 1777978762 | 8.33° C | 95% | 1014.7 hPa | 0 mm | - | 37 W/m² | - |
| 1777978459 | 7.78° C | 96% | 1014.7 hPa | 0 mm | - | 32 W/m² | - |
| 1777978155 | 7.78° C | 95% | 1014.4 hPa | 0 mm | - | 20 W/m² | - |
| 1777977852 | 7.78° C | 95% | 1014.6 hPa | 0 mm | - | 15 W/m² | - |
| 1777977548 | 7.78° C | 95% | 1014.4 hPa | 0 mm | - | 10 W/m² | - |
| 1777977247 | 7.78° C | 95% | 1014.7 hPa | 0 mm | - | 6 W/m² | - |
| 1777976943 | 8.33° C | 95% | 1014.8 hPa | 0 mm | - | 5 W/m² | - |
| 1777976641 | 8.33° C | 95% | 1014.7 hPa | 0 mm | - | 3 W/m² | - |
| 1777976336 | 8.33° C | 95% | 1014.6 hPa | 0 mm | - | 2 W/m² | - |
| 1777976031 | 8.33° C | 95% | 1014.7 hPa | 0 mm | - | 0 W/m² | - |
| 1777975727 | 8.33° C | 95% | 1014.5 hPa | 0 mm | - | 0 W/m² | - |
| 1777975424 | 8.33° C | 95% | 1014.5 hPa | 0 mm | - | 0 W/m² | - |
| 1777975120 | 8.33° C | 95% | 1014.5 hPa | 0 mm | - | 0 W/m² | - |
| 1777974818 | 8.33° C | 95% | 1014.4 hPa | 0 mm | - | 0 W/m² | - |
| 1777974513 | 8.33° C | 95% | 1014.5 hPa | 0 mm | - | 0 W/m² | - |
| 1777974211 | 8.33° C | 95% | 1014.6 hPa | 0 mm | - | 0 W/m² | - |
* Rain latest hour (hover to see other rain measurements)
** Current wind speed in m/s (hover to see current wind gust speed)